Notices

What's New in latest Release from April 7th, 2021:

- Updated Glossary, including Speed of Maximum Gust, and Total Hourly Precipitation

- Updated national and regional climate services offices contacts and prices information

- Addition of station inventory lists for 1981-2010, 1971-2000, and 1961-1990 Normals.

If you haven't already, please take our survey and provide feedback about our website: https://eccc.sondage-survey.ca/f/LanguageSelection.aspx?s=442ca660-fcf1-47c0-95a9-59707d6fd709

Hourly Data Report for November 29, 2019

MIRAMICHI RCS
NEW BRUNSWICK
Current Station Operator: ECCC - MSC

47°00'34.000" N
65°27'54.000" W
33.00 m
8100989
71744
ACQ

Download Data

Hourly Data (November 2019)
Hourly Data Report for November 29, 2019
TIME
LST
Temp Definition
°C
Dew Point Definition
°C
Rel Hum Definition
%
Precip. Amount Definition
mm

Wind Dir Definition
10's deg

Wind Spd Definition
km/h
Visibility Definition
km
Stn Press Definition
kPa
Hmdx Definition


Wind Chill Definition


Weather Definition


00:00 1.6 -2.3 75 0.0 36 14   100.64     LegendNANA
01:00 1.2 -2.7 75 0.0 36 14   100.68     LegendNANA
02:00 0.9 -3.2 74 0.0 35 12   100.74     LegendNANA
03:00 0.3 -3.9 73 0.0 35 14   100.79     LegendNANA
04:00 -0.1 -4.4 73 0.0 34 15   100.83   -5 LegendNANA
05:00 -0.7 -4.8 74 0.0 35 13   100.79   -5 LegendNANA
06:00 -1.2 -5.4 74 0.0 34 13   100.80   -5 LegendNANA
07:00 -1.5 -5.8 73 0.0 34 8   100.80   -5 LegendNANA
08:00 -2.2 -6.7 71 0.0 35 11   100.79   -6 LegendNANA
09:00 -2.5 -7.4 69 0.0 36 11   100.82   -7 LegendNANA
10:00 -2.1 -7.8 65 0.3 35 14   100.79   -7 LegendNANA
11:00 -2.0 -8.5 61 0.0 33 19   100.73   -8 LegendNANA
12:00 -2.0 -8.7 60 0.0 34 13   100.65   -6 LegendNANA
13:00 -2.1 -9.4 58 0.0 32 21   100.60   -8 LegendNANA
14:00 -2.4 -9.6 58 0.0 34 20   100.55   -8 LegendNANA
15:00 -3.2 -10.5 57 0.0 32 20   100.55   -9 LegendNANA
16:00 -4.1 -11.1 58 0.0 32 19   100.54   -10 LegendNANA
17:00 -4.8 -11.4 60 0.0 32 16   100.56   -11 LegendNANA
18:00 -5.5 -12.0 60 0.0 32 20   100.55   -12 LegendNANA
19:00 -5.6 -11.4 63 0.0 31 19   100.51   -12 LegendNANA
20:00 -5.0 -11.1 62 0.0 31 19   100.43   -11 LegendNANA
21:00 -4.8 -10.7 63 0.0 32 17   100.35   -11 LegendNANA
22:00 -5.0 -10.7 64 0.0 31 21   100.25   -12 LegendNANA
23:00 -5.1 -10.7 65 0.0 32 19   100.17   -12 LegendNANA

Notes on Data Quality.

Legend

  • E = Estimated
  • M = Missing
  • NA = Not Available*
  • [empty] = Indicates an unobserved value
Date modified: